CDT,Max TemperatureF,Mean TemperatureF,Min TemperatureF,Max Dew PointF,MeanDew PointF,Min DewpointF,Max Humidity, Mean Humidity, Min Humidity, Max Sea Level PressureIn, Mean Sea Level PressureIn, Min Sea Level PressureIn, Max VisibilityMiles, Mean VisibilityMiles, Min VisibilityMiles, Max Wind SpeedMPH, Mean Wind SpeedMPH, Max Gust SpeedMPH,PrecipitationIn, CloudCover, Events, WindDirDegrees
2013-7-1,74,67,59,55,52,48,78,58,44,30.09,30.06,30.00,10,10,10,17,9,24,0.00,0,,23
2013-7-2,68,64,60,57,52,48,87,69,52,30.11,30.09,30.07,10,10,10,14,8,18,T,5,Rain,28
2013-7-3,73,67,61,63,60,57,94,82,71,30.08,30.06,30.04,10,7,4,9,3,13,T,7,,9
2013-7-4,83,70,56,63,59,55,94,72,45,30.11,30.08,30.04,10,7,2,16,4,18,0.00,1,,189
2013-7-5,85,74,62,65,61,52,87,64,34,30.10,30.06,30.01,10,7,4,13,4,17,0.00,1,,139
2013-7-6,83,74,64,67,64,62,90,68,54,30.07,30.03,29.99,10,8,4,12,6,16,0.00,1,,170
2013-7-7,89,81,72,69,66,65,81,64,48,30.02,29.98,29.94,10,10,9,14,7,22,0.00,0,,205
2013-7-8,87,80,72,75,71,69,94,78,63,30.04,29.98,29.92,10,8,3,17,8,23,0.22,5,Rain-Thunderstorm,217
2013-7-9,87,79,71,76,72,68,93,79,65,30.00,29.94,29.86,10,7,2,21,6,28,0.12,2,Rain-Thunderstorm,225
2013-7-10,85,75,65,75,66,54,89,67,44,30.01,29.90,29.84,10,10,7,16,6,23,0.00,1,,325
2013-7-11,80,71,62,60,55,49,86,59,35,30.12,30.09,30.03,10,10,7,13,5,17,0.00,0,,32
2013-7-12,82,69,56,60,55,52,87,61,38,30.17,30.13,30.10,10,10,10,13,3,16,0.00,0,,95
2013-7-13,83,72,60,63,58,52,87,62,35,30.17,30.15,30.12,10,10,8,14,5,21,0.00,0,,87
2013-7-14,87,78,68,68,66,62,84,66,49,30.23,30.20,30.17,10,10,10,12,5,16,0.00,0,,104
2013-7-15,89,80,71,73,71,67,87,74,59,30.27,30.25,30.23,10,9,5,10,3,13,0.01,2,,78
2013-7-16,94,85,75,73,71,70,87,66,48,30.31,30.27,30.24,10,10,8,13,5,15,0.00,2,,228
2013-7-17,96,87,77,72,71,68,79,60,43,30.32,30.25,30.16,10,10,10,13,4,18,0.00,1,,256
2013-7-18,96,88,80,73,71,68,76,60,40,30.18,30.07,29.95,10,10,10,21,6,26,0.00,1,,230
2013-7-19,97,85,73,73,69,64,84,62,35,29.94,29.84,29.75,10,9,2,29,12,39,0.48,2,Rain-Thunderstorm,238
2013-7-20,89,79,69,70,65,56,87,68,34,29.98,29.89,29.81,10,10,8,15,5,22,0.03,2,Rain,5
2013-7-21,86,76,66,70,65,62,90,76,44,29.97,29.93,29.86,10,8,1,24,5,32,0.86,3,Rain-Thunderstorm,48
2013-7-22,88,79,69,69,66,59,93,68,43,29.88,29.81,29.74,10,8,5,24,5,37,0.02,3,,217
2013-7-23,77,70,63,64,60,55,76,67,57,29.99,29.84,29.69,10,10,10,20,8,28,0.02,3,Rain,4
2013-7-24,71,66,60,55,51,48,78,59,47,30.09,30.05,29.99,10,10,10,14,6,20,0.00,1,,41
2013-7-25,81,69,56,58,55,51,87,60,39,30.12,30.08,30.04,10,10,10,12,2,15,0.00,1,,211
2013-7-26,73,68,63,65,62,57,94,82,59,30.03,29.96,29.89,10,8,1,18,7,28,0.62,6,Rain,200
2013-7-27,65,61,57,59,51,45,90,71,53,29.93,29.91,29.88,10,10,10,18,9,26,0.00,6,,311
2013-7-28,70,63,56,51,48,46,77,63,45,30.03,29.95,29.88,10,10,10,17,8,21,0.00,5,,277
2013-7-29,74,66,57,58,55,51,84,68,55,30.20,30.13,30.03,10,10,10,12,5,21,0.00,2,,328
2013-7-30,76,67,57,65,59,54,90,76,51,30.21,30.15,30.09,10,9,3,12,3,15,0.03,5,Rain,140
2013-7-31,76,70,64,65,64,62,94,85,66,30.09,30.02,29.95,10,5,1,15,3,23,0.15,7,Rain-Thunderstorm,338